Location: Platte
(43.3870°N, 98.8440°W)
Time: 11:32:03
(UTC-05:00)

Resurs 01 Rocket - Pass Details

Date: 21 May 2018
Orbit: 635 x 644 km, 98.1° (Epoch: 20 June)

Event Time Altitude Azimuth Distance (km) Brightness Sun altitude
Rises 22:02:50 0° 186° (S) 2,923 4.7 -10.2°
Reaches altitude 10° 22:05:09 10° 195° (SSW) 2,018 3.9 -10.5°
Maximum altitude 22:09:13 36° 262° (W) 1,003 3.0 -11.1°
Drops below altitude 10° 22:13:19 10° 330° (NNW) 2,030 5.5 -11.6°
Sets 22:15:40 0° 339° (NNW) 2,943 6.3 -12.0°
